Savannah, GA

8:47 PM EST on December 05, 2016 (GMT -0500)
Savannah International

Weather History for KSAV - September, 2013

Change the Weather History Date:

Friday, September 20, 2013

  Actual Average Record
Temperature  
Mean Temperature 75 °F 76 °F  
Max Temperature 85 °F 85 °F 99 °F (1925)
Min Temperature 65 °F 67 °F 51 °F (1981)
Degree Days  
Heating Degree Days 0 0  
Month to date heating degree days 0 0  
Since 1 July heating degree days 0 0  
Cooling Degree Days 10 11  
Month to date cooling degree days 306 264  
Year to date cooling degree days 2155 2171  
Growing Degree Days 24 (Base 50)    
Moisture  
Dew Point 65 °F    
Average Humidity 72    
Maximum Humidity 93    
Minimum Humidity 51    
Precipitation  
Precipitation 0.00 in 0.14 in 2.12 in (1885)
Month to date precipitation 0.85 3.23  
Year to date precipitation 48.02 37.60  
Sea Level Pressure  
Sea Level Pressure 30.04 in    
Wind  
Wind Speed 3 mph (SE)    
Max Wind Speed 12 mph    
Max Gust Speed 14 mph    
Visibility 10 miles    
Events      
T = Trace of Precipitation, MM = Missing Value Source: NWS Daily Summary

Daily Weather History Graph

Daily Weather History Graph

Search for Another Location

Airport or City:

Trip Planner

Search our weather history database for the weather conditions in past years. The results will help you decide how hot, cold, wet, or windy it might be!

Date:

Astronomy

Sep. 20, 2013 Rise Set
Actual Time 7:11 AM EDT 7:23 PM EDT
Civil Twilight 6:47 AM EDT 7:48 PM EDT
Nautical Twilight 6:18 AM EDT 8:16 PM EDT
Astronomical Twilight 5:50 AM EDT 8:45 PM EDT
Moon 8:05 PM EDT (9/20) 8:18 AM EDT (9/20)
Length of Visible Light 13h 00m
Length of Day
12h 11m
Full, 98% of the Moon is Illuminated
Sep 20
Full
Sep 26
Last Quarter
Oct 4
New
Oct 11
First Quarter
Oct 18
Full

Hourly Weather History & Observations

Time (EDT) Temp. Heat Index Dew Point Humidity Pressure Visibility Wind Dir Wind Speed Gust Speed Precip Events Conditions
12:53 AM 69.1 °F - 66.0 °F 90% 30.08 in 10.0 mi Calm Calm - N/A   Clear
1:53 AM 68.0 °F - 64.9 °F 90% 30.08 in 10.0 mi Calm Calm - N/A   Clear
2:53 AM 68.0 °F - 64.9 °F 90% 30.09 in 10.0 mi Calm Calm - N/A   Clear
3:53 AM 68.0 °F - 64.9 °F 90% 30.08 in 10.0 mi Calm Calm - N/A   Clear
4:53 AM 66.9 °F - 64.9 °F 93% 30.07 in 10.0 mi Calm Calm - N/A   Clear
5:53 AM 66.0 °F - 64.0 °F 93% 30.07 in 10.0 mi Calm Calm - N/A   Clear
6:53 AM 66.0 °F - 64.0 °F 93% 30.08 in 10.0 mi Calm Calm - N/A   Clear
7:53 AM 68.0 °F - 66.0 °F 93% 30.09 in 9.0 mi Calm Calm - N/A   Clear
8:53 AM 73.0 °F - 68.0 °F 84% 30.10 in 10.0 mi Calm Calm - N/A   Clear
9:53 AM 78.1 °F - 68.0 °F 71% 30.10 in 10.0 mi NNW 3.5 mph - N/A   Clear
10:53 AM 81.0 °F 83.8 °F 68.0 °F 65% 30.09 in 10.0 mi Calm Calm - N/A   Scattered Clouds
11:03 AM 80.6 °F 82.7 °F 66.2 °F 61% 30.09 in 10.0 mi Calm Calm - N/A   Mostly Cloudy
11:15 AM 80.6 °F 82.7 °F 66.2 °F 61% 30.09 in 10.0 mi Calm Calm - N/A   Scattered Clouds
11:53 AM 82.0 °F 83.4 °F 64.0 °F 54% 30.07 in 10.0 mi Calm Calm - N/A   Scattered Clouds
12:53 PM 84.9 °F 86.6 °F 64.9 °F 51% 30.05 in 10.0 mi Variable 4.6 mph - N/A   Scattered Clouds
1:02 PM 84.2 °F 85.6 °F 64.4 °F 51% 30.05 in 10.0 mi East 3.5 mph - N/A   Mostly Cloudy
1:53 PM 84.9 °F 86.6 °F 64.9 °F 51% 30.03 in 10.0 mi Variable 3.5 mph - N/A   Mostly Cloudy
2:53 PM 84.0 °F 85.8 °F 64.9 °F 53% 30.00 in 10.0 mi Variable 5.8 mph - N/A   Mostly Cloudy
3:53 PM 84.0 °F 86.3 °F 66.0 °F 55% 29.99 in 10.0 mi ESE 5.8 mph - N/A   Overcast
4:53 PM 82.0 °F 83.8 °F 64.9 °F 56% 29.98 in 10.0 mi ESE 9.2 mph - N/A   Mostly Cloudy
5:53 PM 82.0 °F 83.8 °F 64.9 °F 56% 29.96 in 10.0 mi SSE 8.1 mph - N/A   Partly Cloudy
6:53 PM 80.1 °F 81.9 °F 64.9 °F 60% 29.96 in 10.0 mi SE 9.2 mph - N/A   Clear
7:53 PM 75.9 °F - 64.9 °F 69% 29.98 in 10.0 mi SSE 5.8 mph - N/A   Clear
8:53 PM 73.9 °F - 66.0 °F 76% 29.98 in 10.0 mi SSE 3.5 mph - N/A   Clear
9:53 PM 73.0 °F - 66.0 °F 79% 29.98 in 10.0 mi South 3.5 mph - N/A   Clear
10:53 PM 73.0 °F - 66.0 °F 79% 29.98 in 10.0 mi Calm Calm - N/A   Clear
11:53 PM 70.0 °F - 66.0 °F 87% 29.98 in 10.0 mi Calm Calm - N/A   Clear